sat.trackr.live / text

‹ back to catalog

STARLINK-33796

NORAD 63515 · 2025-071Y

PAYLOAD ACTIVE UNKNOWN

§ Identity

Operator
Country
US
Launch date
2025-04-07
Launch site
AFWTR
Launch vehicle
Mass (kg)
RCS (m²)

Purposes: comms

External: N2YO · Heavens-Above · Gunter

§ Orbital elements

Epoch: 2026-05-24T17:22:43.642272Z

Period
94.11 min
Inclination
53.1606°
Eccentricity
0.0001181
Mean motion
15.30200532 rev/d
Perigee alt
474.4 km
Apogee alt
476.0 km
Semi-major
6,853.4 km
B*
3.2456e-4
RAAN
146.5281°
Arg perigee
83.9270°
Mean anomaly
276.1866°
Rev number
6,441

§ Raw data

STARLINK-337961 63515U 25071Y   26144.72411623  .00009266  00000+0  32456-3 0  99932 63515  53.1606 146.5281 0001181  83.9270 276.1866 15.30200532 64412

JSON: /api/v1/satellites/63515 · /tle

For live sub-satellite position, see the globe view (requires WebGL).

§ Visibility from observer

Set your observer location to see the next 7 days of passes ≥ 10°. The values pass through the URL so the page stays shareable.

No JS? Fill the form by hand. The geolocation button needs JavaScript.